Wappingers Falls, NY

7:12 AM EST on December 06, 2016 (GMT -0500)
Dutchess County

Weather History for KPOU - July, 2014

Change the Weather History Date:

Monday, July 28, 2014

  Actual Average Record
Temperature  
Mean Temperature 75 °F 73 °F  
Max Temperature 83 °F 85 °F 96 °F (1949)
Min Temperature 67 °F 61 °F 47 °F (1977)
Degree Days  
Heating Degree Days 0 0  
Month to date heating degree days 0 0  
Since 1 June heating degree days 7 49  
Since 1 July heating degree days 0 0  
Cooling Degree Days 10 8  
Month to date cooling degree days 255 216  
Year to date cooling degree days 426 379  
Since 1 June cooling degree days 393 343  
Growing Degree Days 24 (Base 50)    
Moisture  
Dew Point 65 °F    
Average Humidity 77    
Maximum Humidity 93    
Minimum Humidity 60    
Precipitation  
Precipitation 0.05 in 0.16 in 2.01 in (1986)
Month to date precipitation 4.96 4.14  
Year to date precipitation 21.28 26.07  
Sea Level Pressure  
Sea Level Pressure 29.54 in    
Wind  
Wind Speed 5 mph (SW)    
Max Wind Speed 15 mph    
Max Gust Speed 24 mph    
Visibility 10 miles    
Events Rain , Thunderstorm    
T = Trace of Precipitation, MM = Missing Value Source: NWS Daily Summary

Daily Weather History Graph

Daily Weather History Graph

Search for Another Location

Airport or City:

Trip Planner

Search our weather history database for the weather conditions in past years. The results will help you decide how hot, cold, wet, or windy it might be!

Date:

Astronomy

Jul. 28, 2014 Rise Set
Actual Time 5:46 AM EDT 8:17 PM EDT
Civil Twilight 5:14 AM EDT 8:49 PM EDT
Nautical Twilight 4:34 AM EDT 9:28 PM EDT
Astronomical Twilight 3:50 AM EDT 10:12 PM EDT
Moon 7:27 AM EDT (7/28) 8:55 PM EDT (7/28)
Length of Visible Light 15h 34m
Length of Day
14h 31m
Waxing Crescent, 3% of the Moon is Illuminated
Jul 28
Waxing Crescent
Aug 3
First Quarter
Aug 10
Full
Aug 17
Last Quarter
Aug 25
New

Hourly Weather History & Observations

Time (EDT) Temp. Heat Index Dew Point Humidity Pressure Visibility Wind Dir Wind Speed Gust Speed Precip Events Conditions
12:53 AM 73.9 °F - 66.0 °F 76% 29.60 in 10.0 mi SE 5.8 mph - N/A   Clear
1:53 AM 73.0 °F - 69.1 °F 87% 29.58 in 9.0 mi Calm Calm - 0.00 in Rain Light Rain
2:53 AM 72.0 °F - 69.1 °F 91% 29.55 in 10.0 mi East 4.6 mph - 0.04 in   Overcast
3:53 AM 70.0 °F - 66.9 °F 90% 29.53 in 8.0 mi ESE 5.8 mph - 0.01 in Rain Light Rain
4:53 AM 70.0 °F - 66.9 °F 90% 29.52 in 10.0 mi Calm Calm - 0.00 in   Overcast
5:05 AM 70.0 °F - 66.9 °F 90% 29.53 in 10.0 mi Calm Calm - N/A   Overcast
5:53 AM 69.1 °F - 66.9 °F 93% 29.52 in 9.0 mi Calm Calm - N/A   Overcast
6:05 AM 70.0 °F - 66.9 °F 90% 29.53 in 9.0 mi SSE 3.5 mph - N/A   Overcast
6:23 AM 70.0 °F - 66.9 °F 90% 29.53 in 10.0 mi Calm Calm - N/A   Overcast
6:53 AM 71.1 °F - 68.0 °F 90% 29.51 in 9.0 mi Calm Calm - N/A   Mostly Cloudy
7:13 AM 71.1 °F - 68.0 °F 90% 29.53 in 10.0 mi Calm Calm - N/A   Mostly Cloudy
7:41 AM 71.1 °F - 68.0 °F 90% 29.52 in 10.0 mi Calm Calm - N/A   Overcast
7:53 AM 71.1 °F - 68.0 °F 90% 29.51 in 10.0 mi Calm Calm - N/A   Overcast
8:53 AM 72.0 °F - 68.0 °F 87% 29.52 in 10.0 mi SSE 3.5 mph - N/A   Overcast
10:53 AM 75.9 °F - 66.0 °F 71% 29.50 in 10.0 mi SSW 6.9 mph - N/A   Overcast
11:00 AM 75.9 °F - 66.0 °F 71% 29.51 in 10.0 mi SSW 5.8 mph - N/A   Mostly Cloudy
11:53 AM 79.0 °F - 66.9 °F 66% 29.50 in 10.0 mi SSW 8.1 mph - N/A   Mostly Cloudy
12:53 PM 80.1 °F 82.1 °F 66.0 °F 62% 29.48 in 10.0 mi SW 9.2 mph - N/A   Partly Cloudy
4:03 PM 79.0 °F - 64.9 °F 62% 29.49 in 10.0 mi WSW 12.7 mph 24.2 mph 0.00 in Rain , Thunderstorm Light Thunderstorms and Rain
4:22 PM 75.9 °F - 62.1 °F 62% 29.51 in 10.0 mi WSW 15.0 mph - 0.00 in Rain , Thunderstorm Light Rain
4:35 PM 75.0 °F - 60.1 °F 60% 29.51 in 10.0 mi SW 12.7 mph 19.6 mph 0.00 in Rain Light Rain
4:53 PM 73.9 °F - 61.0 °F 64% 29.49 in 10.0 mi SW 9.2 mph - 0.00 in   Scattered Clouds
5:53 PM 75.0 °F - 63.0 °F 66% 29.52 in 10.0 mi WSW 11.5 mph 17.3 mph N/A   Mostly Cloudy
6:53 PM 73.0 °F - 63.0 °F 71% 29.53 in 10.0 mi SSW 9.2 mph - N/A   Scattered Clouds
7:53 PM 72.0 °F - 64.0 °F 76% 29.55 in 10.0 mi SW 9.2 mph - N/A   Mostly Cloudy
8:53 PM 72.0 °F - 62.1 °F 71% 29.58 in 10.0 mi WSW 8.1 mph - N/A   Overcast
9:53 PM 70.0 °F - 57.0 °F 63% 29.62 in 10.0 mi NW 10.4 mph - N/A   Mostly Cloudy
10:53 PM 69.1 °F - 57.0 °F 65% 29.65 in 10.0 mi WNW 6.9 mph - N/A   Overcast
11:53 PM 68.0 °F - 57.0 °F 68% 29.66 in 10.0 mi West 5.8 mph - N/A   Mostly Cloudy